Tacoma Narrows, WA
on Sunday, December 30, 2012

Sunday
Previous Day Next Day
Daily Summary
 ActualAverageRecord
Temperature
Mean Temperature °F °F  
Max Temperature 39°F 43°F 51°F (1996)
Min Temperature 32°F 36°F 25°F (2010)
Degree Days
Heating Degree Days 30    
Moisture
Dew Point 35°F   
Average Humidity 91    
Maximum Humidity 100    
Minimum Humidity 81    
Precipitation
Precipitation 0.01 in in in ()
Wind
Wind Speed 0 mph   
Max Wind Speed 5 mph   
Max Gust Speed mph   
Visibility 5 miles   
Events Fog   
Averages and records for this station are not official NWS values.
Key: T is trace of precipitation, MM is missing value
Source: NWS Daily Summary
Seasonal Weather Averages
Time(PST)TemperatureDew PointHumidity Pressure Visibility Wind DirectionWind SpeedGust SpeedPrecipitationEvents Conditions
12:16 AM 39.2°F 37.4°F 93% 30.22 in 5.0 miles Calm Calm - 0.00 in   Overcast
12:24 AM 39.2°F 37.4°F 93% 30.22 in 6.0 miles Calm Calm - 0.00 in   Overcast
12:53 AM 39.0°F 37.0°F 93% 30.24 in 4.0 miles Calm Calm - 0.00 in   Overcast
1:29 AM 37.4°F 35.6°F 93% 30.23 in 1.8 miles Calm Calm - N/A   Overcast
1:46 AM 37.4°F 35.6°F 93% 30.23 in 2.5 miles West 3.5 mph - N/A   Overcast
1:49 AM 37.4°F 35.6°F 93% 30.23 in 1.5 miles West 3.5 mph - N/A   Overcast
1:53 AM 37.9°F 36.0°F 93% 30.24 in 0.8 miles Calm Calm - N/A   Overcast
1:56 AM 37.4°F 35.6°F 93% 30.23 in 0.2 miles Calm Calm - N/A Fog Fog
2:13 AM 37.4°F 37.4°F 100% 30.23 in 1.0 miles Calm Calm - N/A   Overcast
2:17 AM 37.4°F 35.6°F 93% 30.24 in 3.0 miles Calm Calm - N/A   Mostly Cloudy
2:27 AM 35.6°F 33.8°F 93% 30.24 in 1.8 miles Calm Calm - N/A   Mostly Cloudy
2:37 AM 37.4°F 35.6°F 93% 30.24 in 3.0 miles Calm Calm - N/A   Mostly Cloudy
2:49 AM 37.4°F 35.6°F 93% 30.24 in 1.8 miles Calm Calm - N/A   Mostly Cloudy
2:53 AM 37.0°F 35.1°F 93% 30.26 in 1.5 miles Calm Calm - N/A   Overcast
2:56 AM 37.4°F 35.6°F 93% 30.24 in 2.0 miles Calm Calm - N/A   Overcast
3:04 AM 37.4°F 35.6°F 93% 30.24 in 6.0 miles Calm Calm - N/A   Overcast
3:20 AM 37.4°F 37.4°F 100% 30.25 in 6.0 miles Calm Calm - N/A   Overcast
3:37 AM 37.4°F 35.6°F 93% 30.25 in 1.8 miles Calm Calm - N/A   Mostly Cloudy
3:53 AM 37.0°F 35.1°F 93% 30.27 in 2.0 miles Calm Calm - N/A   Scattered Clouds
3:57 AM 37.4°F 35.6°F 93% 30.26 in 1.8 miles Calm Calm - N/A   Scattered Clouds
4:20 AM 35.6°F 33.8°F 93% 30.26 in 0.8 miles Calm Calm - N/A   Mist
4:35 AM 35.6°F 33.8°F 93% 30.26 in 1.0 miles Calm Calm - N/A   Partly Cloudy
4:51 AM 35.6°F 33.8°F 93% 30.26 in 0.5 miles Calm Calm - N/A Fog Fog
4:53 AM 35.1°F 33.1°F 92% 30.27 in 0.5 miles Calm Calm - N/A Fog Fog
5:02 AM 35.6°F 33.8°F 93% 30.26 in 0.5 miles Calm Calm - N/A Fog Fog
5:18 AM 37.4°F 35.6°F 93% 30.26 in 2.0 miles Calm Calm - N/A   Overcast
5:26 AM 37.4°F 35.6°F 93% 30.26 in 6.0 miles Calm Calm - N/A   Overcast
5:36 AM 35.6°F 35.6°F 100% 30.26 in 2.5 miles Calm Calm - N/A   Overcast
5:53 AM 37.0°F 35.1°F 93% 30.28 in 4.0 miles Calm Calm - N/A   Overcast
6:02 AM 37.4°F 35.6°F 93% 30.27 in 5.0 miles Calm Calm - N/A   Overcast
6:12 AM 37.4°F 35.6°F 93% 30.27 in 6.0 miles Calm Calm - N/A   Overcast
6:53 AM 39.0°F 37.0°F 93% 30.29 in 5.0 miles Calm Calm - N/A   Overcast
7:53 AM 37.9°F 36.0°F 93% 30.29 in 6.0 miles NNE 4.6 mph - N/A   Overcast
8:53 AM 37.0°F 35.1°F 93% 30.30 in 4.0 miles Variable 3.5 mph - N/A   Overcast
9:53 AM 37.0°F 35.1°F 93% 30.32 in 6.0 miles NE 3.5 mph - N/A   Overcast
10:53 AM 37.9°F 36.0°F 93% 30.32 in 7.0 miles Calm Calm - N/A   Overcast
11:53 AM 39.0°F 36.0°F 89% 30.31 in 10.0 miles Calm Calm - N/A   Overcast
11:55 AM 39.2°F 35.6°F 87% 30.30 in 10.0 miles Calm Calm - N/A   Overcast
12:53 PM 39.0°F 35.1°F 86% 30.31 in 10.0 miles Calm Calm - N/A   Overcast
1:53 PM 39.9°F 35.1°F 83% 30.31 in 10.0 miles North 3.5 mph - N/A   Overcast
2:53 PM 39.9°F 35.1°F 83% 30.31 in 10.0 miles Calm Calm - N/A   Overcast
3:53 PM 39.9°F 36.0°F 86% 30.30 in 10.0 miles Calm Calm - N/A   Overcast
4:53 PM 39.9°F 36.0°F 86% 30.30 in 10.0 miles Calm Calm - N/A   Overcast
5:53 PM 39.0°F 34.0°F 82% 30.28 in 10.0 miles Calm Calm - N/A   Overcast
6:53 PM 37.9°F 33.1°F 83% 30.27 in 10.0 miles Calm Calm - N/A   Scattered Clouds
7:53 PM 34.0°F 30.9°F 89% 30.28 in 10.0 miles Calm Calm - N/A   Clear
8:53 PM 32.0°F 28.0°F 85% 30.29 in 10.0 miles Calm Calm - N/A   Partly Cloudy
9:06 PM 33.8°F 28.4°F 81% 30.27 in 10.0 miles Calm Calm - N/A   Mostly Cloudy
9:31 PM 35.6°F 30.2°F 81% 30.27 in 10.0 miles Calm Calm - N/A   Scattered Clouds
9:53 PM 34.0°F 30.9°F 89% 30.30 in 8.0 miles Calm Calm - N/A   Partly Cloudy
10:11 PM 32.0°F 30.2°F 93% 30.28 in 9.0 miles Calm Calm - N/A   Scattered Clouds
10:31 PM 33.8°F 30.2°F 87% 30.29 in 5.0 miles Calm Calm - 0.01 in   Mostly Cloudy
10:53 PM 36.0°F 33.1°F 89% 30.30 in 7.0 miles Calm Calm - 0.01 in   Mostly Cloudy
11:25 PM 35.6°F 32.0°F 87% 30.29 in 5.0 miles Calm Calm - N/A   Partly Cloudy
11:53 PM 32.0°F 30.0°F 92% 30.30 in 4.0 miles Calm Calm - N/A   Clear
Moon Phase
Dec. 30 Jan. 04 Jan. 11 Jan. 18 Jan. 26
Sunrise:07:57 AM (PST) Moon Rise:07:17 PM (PST)12/30
Sunset:04:29 PM (PST) Moon Set:08:59 AM (PST)12/30

Copyright © 2014 The Weather Underground, Inc.